Hourly Data Report for October 28, 2015

All times are specified in Local Standard Time (LST). Add 1 hour to adjust for Daylight Saving Time where and when it is observed.

WINNIPEG A CS
MANITOBA

49°55'00.000" N
97°14'58.000" W
238.70 m
502S001
71849
XWG

Download Data

Hourly Data (October 2015)
Hourly Data Report for October 28, 2015
Temp Definition
°C
Dew Point Temp Definition
°C
Rel Hum Definition
%
Wind Dir Definition
10's deg

Wind Spd Definition
km/h
Visibility Definition
km
Stn Press Definition
kPa
Hmdx Definition


Wind Chill Definition


Weather Definition


TIME
00:00 5.4 3.9 90 27 30   97.54     LegendNANA
01:00 3.5 2.5 93 27 26   97.55     LegendNANA
02:00 2.2 0.3 87 27 27   97.55     LegendNANA
03:00 1.9 0.1 88 27 23   97.50     LegendNANA
04:00 1.7 -0.3 87 28 22   97.47     LegendNANA
05:00 1.5 -0.3 87 28 21   97.44     LegendNANA
06:00 1.5 0.8 95 28 19   97.39     LegendNANA
07:00 1.6 1.0 96 29 17   97.36     LegendNANA
08:00 1.9 1.6 98 31 20   97.32     LegendNANA
09:00 2.3 1.3 93 32 29   97.31     LegendNANA
10:00 2.7 1.4 91 33 30   97.28     LegendNANA
11:00 2.9 1.8 92 33 34   97.26     LegendNANA
12:00 3.1 2.4 95 33 32   97.23     LegendNANA
13:00 3.2 2.4 95 33 33   97.19     LegendNANA
14:00 3.7 2.7 93 33 35   97.18     LegendNANA
15:00 4.1 3.1 93 33 33   97.17     LegendNANA
16:00 4.4 3.5 94 33 31   97.23     LegendNANA
17:00 4.6 3.9 95 33 34   97.24     LegendNANA
18:00 5.1 4.3 94 33 32   97.29     LegendNANA
19:00 5.5 4.7 95 33 33   97.31     LegendNANA
20:00 5.1 4.6 97 33 38   97.36     LegendNANA
21:00 5.0 4.2 95 33 36   97.43     LegendNANA
22:00 4.9 4.0 94 34 38   97.47     LegendNANA
23:00 4.6 3.9 95 34 38   97.52     LegendNANA

Notes on Data Quality.

Legend

  • E = Estimated
  • M = Missing
  • NA = Not Available
  • ‡ = Partner data that is not subject to review by the National Climate Archives
Date modified: